Regional Weather Roundup
Issued by NWS Green Bay, WI

Home | Current Version | Previous Version | Text Only | Print | Product List | Glossary On
Versions: 1 2 3 4 5 6 7 8 9 10 11 12 13 14 15 16 17 18 19 20 21 22 23 24 25 26 27 28 29 30 31 32 33 34 35 36 37 38 39 40 41 42 43 44 45 46 47 48 49 50
000
ASUS43 KGRB 051211
RWRGRB

NORTH-CENTRAL AND NORTHEAST WISCONSIN REGIONAL WEATHER ROUNDUP
NATIONAL WEATHER SERVICE GREEN BAY WI
700 AM CDT THU MAY 05 2016

WIZ005-009-010>012-018-019-051300-
NORTH CENTRAL WISCONSIN

CITY           SKY/WX    TMP DP  RH WIND       PRES   REMARKS
IRONWOOD         N/A     34  32  93 CALM      30.01R
MANITOWISH WTR SUNNY     31  31 100 CALM      30.01S
ARBOR VITAE    SUNNY     32  31  94 CALM      30.02S
EAGLE RIVER    SUNNY     31  31 100 CALM      30.01F
LAND O LAKES   SUNNY     30  30  98 CALM      30.03R
RHINELANDER    SUNNY     34  30  85 CALM      30.03R
PHILLIPS       MOSUNNY   32  31  97 CALM      30.03R
ANTIGO         SUNNY     34  32  92 CALM      30.02R
TOMAHAWK       CLOUDY    32  31  96 CALM      30.04R
MERRILL        NOT AVBL
$$

WIZ013-073-051300-
NORTHEAST WISCONSIN

CITY           SKY/WX    TMP DP  RH WIND       PRES   REMARKS
IRON MOUNTAIN  SUNNY     34  30  85 CALM      30.00R
MARINETTE      SUNNY     37  32  81 N7        30.03
OCONTO         SUNNY     37  33  88 N7        30.02S
$$

WIZ017-030-035>037-045-051300-
CENTRAL WISCONSIN

CITY           SKY/WX    TMP DP  RH WIND       PRES   REMARKS
MEDFORD        MOSUNNY   33  32  96 CALM      30.03S
WAUSAU         MOSUNNY   40  32  73 N7        30.02R
MOSINEE        SUNNY     37  34  87 N6        30.04R
MARSHFIELD     MOSUNNY   39  33  79 NW3       30.03R
WISC RAPIDS    SUNNY     39  32  76 N3        30.05R
STEVENS POINT  SUNNY     35  31  87 N3        30.04R
WAUPACA        MOSUNNY   39  33  76 N3        30.03R
SHAWANO        SUNNY     40  33  76 N6        30.03S
CLINTONVILLE   SUNNY     37  32  81 N3        30.03R
WAUTOMA        NOT AVBL
$$

WIZ038-039-048-051-051300-
FOX VALLEY

CITY           SKY/WX    TMP DP  RH WIND       PRES   REMARKS
NWS GREEN BAY  SUNNY     39  33  79 N8        30.02R
APPLETON       SUNNY     37  30  75 N9        30.00R
OSHKOSH        SUNNY     39  32  76 N9        30.01R
FOND DU LAC    SUNNY     39  33  79 N8        30.01R
$$

WIZ022-050-052-051300-
EAST CENTRAL WISCONSIN

CITY           SKY/WX    TMP DP  RH WIND       PRES   REMARKS
EPHRAIM        FAIR      38  35  89 N10       30.00R
STURGEON BAY   SUNNY     39  32  75 N12       30.03R
MANITOWOC      SUNNY     40  34  79 NW10      30.01R
SHEBOYGAN      SUNNY     38  32  79 N8        29.99R
$$

LMZ563-521-522-541>543-051300-
LAKESHORE

STATION/POSITION TIME  TEMP    WIND        PRES    VSBY  WAVE
                       AIR SEA DIR/SP/G                  HT/PER
                 (UTC) (F)     (DEG/KT/KT) (MB)    (MI)  (FT/S)
SHEBOYGAN LKSHOR 1200   41     350/ 16/ 18 1016.4R
KEWAUNEE LKSHORE 1100   37     330/  8/ 14 1014.3R
ALGOMA MARINA    1115          340/ 11/ 15   N/A
NORTHPORT PIER   1124   39     350/ 12/ 15 1015.9R
N MID LAKE BUOY  1150   38 38  340/ 12/ 14 1015.7R         2/ 3
CHAMBERS ISLAND  1100   38     340/ 10/ 11 1016.3R
MENOMINEE LKSHOR 1100   38     330/ 10/ 12 1014.9R
$$




USA.gov is the U.S. government's official web portal to all federal, state and local government web resources and services.